Tracking 28926 objects as of 23-May-2024
HD Live streaming from Space Station
objects crossing your sky now

USA 325

Track USA 325 now!


NORAD ID: 51281
Int'l Code: 2022-006B
Perigee: 35,817.7 km
Apogee: 35,897.9 km
Inclination: 0.2 °
Period: 1,439.4 minutes
Semi major axis: 42228 km
RCS: Unknown
Launch date: January 21, 2022
Source: United States (US)
Launch site: AIR FORCE EASTERN TEST RANGE (AFETR)
Your satellite tracking list
Your tracking list is empty




NASA's NSSDC Master Catalog

Two Line Element Set (TLE):
1 51281U 22006B   24127.85367294 -.00000160  00000-0  00000+0 0  9994
2 51281   0.2249  83.3121 0009496 339.5200 197.5585  1.00043701  8390
Source of the keplerian elements: McCants